Location: Augustenthal
(51.7167°N, 10.2833°E)
Time: 07:11:32
(UTC+00:00)

Cosmos 1975 - Pass Details

Date: 18 May 2021
Orbit: 541 x 561 km, 82.5° (Epoch: 20 June)

Event Time Altitude Azimuth Distance (km) Brightness Sun altitude
Rises 20:48:47 0° 354° (N) 2,716 7.5 -11.7°
Reaches altitude 10° 20:51:03 10° 3° (N) 1,819 6.3 -11.9°
Maximum altitude 20:54:49 39° 73° (ENE) 830 3.6 -12.2°
Enters shadow 20:57:15 19° 133° (SE) 1,334 4.2 -12.4°
